This demonstration page uses our WeatherBlox Daily Observations layout. Learn more.

Left ArrowRight Arrow

39.95238, -75.16362

Hourly Observations for February 23, 2017

Temp ( °F °C ) Dew Point ( °F °C ) Humidity (%) Winds ( mph kmh ) Pressure ( in mb ) Visibility ( mi km ) Precip ( " mm )
12:54 am 00:54 Mostly Cloudy with Mist and Fog 45 7.2 42 5.6 90 90 Calm 29.91 1013 5 8 0.00 0.00
1:01 am 01:01 Mostly Cloudy with Mist and Fog 46 7.8 43 6.1 89 89 Calm 29.91 1013 5 8 0.00 0.00
1:10 am 01:10 Mostly Cloudy with Mist and Fog 47 8.3 44 6.7 90 90 SW 3 6 29.91 1013 5 8 0.00 0.00
1:18 am 01:18 Cloudy with Mist and Fog 46 7.8 44 6.7 93 93 WSW 3 6 29.91 1013 5 8 0.00 0.00
1:24 am 01:24 Cloudy with Mist and Fog 47 8.3 44 6.7 90 90 WSW 3 6 29.91 1013 5 8 0.00 0.00
1:41 am 01:41 Cloudy with Mist and Fog 47 8.3 45 7.2 93 93 Calm 29.91 1013 5 8 0.00 0.00
1:54 am 01:54 Cloudy with Mist and Fog 47 8.3 45 7.2 93 93 W 3 6 29.91 1013 5 8 0.00 0.00
2:05 am 02:05 Cloudy with Mist and Fog 47 8.3 45 7.2 93 93 W 6 9 29.91 1013 2 3 0.00 0.00
2:08 am 02:08 Cloudy with Mist and Fog 47 8.3 45 7.2 93 93 W 5 7 29.91 1013 1 2 0.00 0.00
2:12 am 02:12 Cloudy with Fog 46 8 45 7 93 93 W 6 9 29.91 1013 0 0 0.00 0.00
2:22 am 02:22 Cloudy with Fog 47 8.3 46 7.8 97 97 WSW 5 7 29.91 1013 0 0 0.00 0.00
2:54 am 02:54 Cloudy with Fog 46 7.8 46 7.8 100 100 SSW 7 11 29.90 1012 0 0 0.00 0.00
3:44 am 03:44 Cloudy with Fog 49 9.4 48 8.9 97 97 SW 8 13 29.91 1013 0 0 0.00 0.00
3:54 am 03:54 Cloudy with Fog 48 8.9 48 8.9 100 100 SSW 5 7 29.90 1012 0 0 0.00 0.00
4:49 am 04:49 Cloudy with Fog 48 9 48 9 100 100 Calm 29.91 1013 0 0 0.00 0.00
4:54 am 04:54 Cloudy with Fog 49 9.4 48 8.9 97 97 Calm 29.89 1012 0 0 0.00 0.00
5:38 am 05:38 Cloudy with Fog 48 8.9 47 8.3 96 96 Calm 29.88 1012 1 1 0.00 0.00
5:54 am 05:54 Cloudy with Fog 49 9.4 48 8.9 97 97 Calm 29.89 1012 1 1 0.00 0.00
6:08 am 06:08 Cloudy with Fog 48 8.9 48 8.9 100 100 Calm 29.91 1013 1 1 0.00 0.00
6:54 am 06:54 Mostly Cloudy with Fog 49 9.4 48 8.9 97 97 Calm 29.91 1013 1 1 0.00 0.00
7:10 am 07:10 Cloudy with Mist and Fog 48 9 48 9 100 100 Calm 29.91 1013 1 1 0.00 0.00
7:28 am 07:28 Cloudy with Fog 50 10 49 9.4 96 96 Calm 29.91 1013 1 1 0.00 0.00
7:46 am 07:46 Cloudy with Fog 48 9 48 9 100 100 Calm 29.91 1013 1 1 0.00 0.00
7:54 am 07:54 Cloudy with Fog 49 9.4 48 8.9 97 97 Calm 29.91 1013 1 1 0.00 0.00
8:20 am 08:20 Cloudy with Mist and Fog 50 10 49 9.4 96 96 S 5 7 29.91 1013 1 1 0.00 0.00
8:37 am 08:37 Cloudy with Mist and Fog 51 10.6 50 10 96 96 S 5 7 29.91 1013 1 2 0.00 0.00
8:54 am 08:54 Cloudy with Mist and Fog 51 10.6 50 10 96 96 SSW 5 7 29.92 1013 2 3 0.00 0.00
9:54 am 09:54 Cloudy with Mist and Fog 53 11.7 52 11.1 96 96 SW 7 11 29.91 1013 1 2 0.00 0.00
10:46 am 10:46 Cloudy with Mist and Fog 54 12.2 53 11.7 97 97 SW 9 15 29.91 1013 2 3 0.00 0.00
10:54 am 10:54 Cloudy with Mist and Fog 54 12.2 53 11.7 97 97 SW 9 15 29.91 1013 3 5 0.00 0.00
11:04 am 11:04 Cloudy with Mist and Fog 54 12 54 12 100 100 SW 9 15 29.91 1013 5 8 0.00 0.00
11:27 am 11:27 Mostly Cloudy with Mist and Fog 56 13.3 53 11.7 90 90 SW 9 15 29.91 1013 6 10 0.00 0.00
11:38 am 11:38 Mostly Cloudy 57 13.9 53 11.7 87 87 SW 7 11 29.91 1013 7 11 0.00 0.00
11:54 am 11:54 Partly Cloudy 59 15 53 11.7 81 81 SW 7 11 29.88 1012 7 11 0.00 0.00
12:54 pm 12:54 Partly Cloudy 65 18.3 53 11.7 66 66 W 7 11 29.85 1011 10 16 0.00 0.00
1:54 pm 13:54 Mostly Cloudy 69 20.6 53 11.7 57 57 SSW 9 15 29.82 1010 10 16 0.00 0.00
2:54 pm 14:54 Mostly Cloudy 72 22.2 53 11.7 52 52 SW 14 22 29.81 1010 10 16 0.00 0.00
3:54 pm 15:54 Partly Cloudy 72 22.2 53 11.7 52 52 SW 8 13 29.82 1010 10 16 0.00 0.00
4:54 pm 16:54 Partly Cloudy 72 22.2 52 11.1 50 50 SSW 15 24 29.82 1010 10 16 0.00 0.00
5:54 pm 17:54 Partly Cloudy 67 19.4 52 11.1 59 59 SSW 8 13 29.84 1011 10 16 0.00 0.00
6:54 pm 18:54 Partly Cloudy 66 18.9 52 11.1 61 61 SSW 7 11 29.86 1011 10 16 0.00 0.00
7:54 pm 19:54 Partly Cloudy 63 17.2 52 11.1 68 68 SSW 7 11 29.88 1012 10 16 0.00 0.00
8:54 pm 20:54 Partly Cloudy 63 17.2 51 10.6 65 65 SSW 9 15 29.89 1012 10 16 0.00 0.00
9:54 pm 21:54 Partly Cloudy 61 16.1 51 10.6 70 70 SSW 7 11 29.90 1013 10 16 0.00 0.00
10:54 pm 22:54 Mostly Clear 58 14.4 49 9.4 72 72 Calm 29.90 1013 10 16 0.00 0.00
11:54 pm 23:54 Mostly Clear 57 13.9 50 10 78 78 SW 5 7 29.92 1013 10 16 0.00 0.00

Powered by AerisWeather